Location: Unspecified
(32.6834°N, 0.0000°E)
Time: 07:13:00
(UTC+00:00)

YUNHAI 2 2 - Visible Passes

Search period start: 04 April 2026 00:00
Search period end: 14 April 2026 00:00
Orbit: 792 x 799 km, 50.0° (Epoch: 29 March)

Date Brightness Start Highest point End Pass type
(mag) Time Alt. Az. Time Alt. Az. Time Alt. Az.
4 Apr ? 20:23:38 10° NW 20:26:14 13° N 20:28:49 10° NNE visible
4 Apr ? 22:10:26 10° NNW 22:11:17 12° NNW 22:11:17 12° NNW visible
5 Apr ? 19:52:39 10° NW 19:55:26 14° N 19:58:12 10° NNE visible
5 Apr ? 21:39:52 10° NNW 21:42:01 14° N 21:42:01 14° N visible
6 Apr ? 19:21:40 10° NW 19:24:38 14° NNW 19:27:36 10° NNE visible
6 Apr ? 21:09:17 10° NNW 21:12:07 14° N 21:12:43 14° NNE visible
7 Apr ? 18:50:40 10° NW 18:53:51 15° NNW 18:57:03 10° NNE visible
7 Apr ? 20:38:40 10° NNW 20:41:19 13° N 20:43:23 11° NNE visible
7 Apr ? 22:23:26 10° NNW 22:24:09 13° NNW 22:24:09 13° NNW visible
8 Apr ? 20:08:02 10° NNW 20:10:31 13° N 20:13:00 10° NNE visible
8 Apr ? 21:52:55 10° NNW 21:54:49 18° NNW 21:54:49 18° NNW visible
9 Apr ? 19:37:22 10° NNW 19:39:43 13° N 19:42:04 10° NNE visible
9 Apr ? 21:22:24 10° NNW 21:25:29 22° N 21:25:29 22° N visible
10 Apr ? 19:06:38 10° NNW 19:08:54 12° N 19:11:12 10° NNE visible
10 Apr ? 20:51:52 10° NNW 20:56:09 22° NNE 20:56:10 22° NNE visible
10 Apr ? 22:36:38 10° NW 22:36:56 11° NW 22:36:56 11° NW visible
11 Apr ? 20:21:21 10° NNW 20:25:24 20° NNE 20:26:52 18° NE visible
11 Apr ? 22:06:03 10° NW 22:07:38 20° NW 22:07:38 20° NW visible
12 Apr ? 19:50:49 10° NNW 19:54:39 19° NNE 19:57:35 13° ENE visible
12 Apr ? 21:35:28 10° NW 21:38:21 31° NNW 21:38:21 31° NNW visible
13 Apr ? 19:20:17 10° NNW 19:23:53 17° NNE 19:27:30 10° ENE visible
13 Apr ? 21:04:54 10° NW 21:09:06 44° N 21:09:06 44° N visible
